RESURS-DK 1

Last updated on Fri Jul 11 2025 00:02:13 GMT+0000 (Coordinated Universal Time)

1 29228U 06021A 25191.58120388 .00001337 00000+0 86021-4 0 9999 2 29228 69.9319 142.4370 0003082 169.4141 190.7090 15.11068604 50937
UTC large
Height (km)
Speed (km/s)
/
Latitude / Longitude
Inclination (degrees)
Orbital Period (minutes)
Azimuth
Elevation
Range (km)
Doppler Factor

Next 0 passes for location: London (51.5072 / 0.1276)

Sorry there are no passes over London.